Temperature
18 18 17 17 17 17 17 17 17 17 17 17 17 17 17 17 17 17 17 17 17 17 17 17 17 17 17 16 16 16 16 16 16 16 16 16 15 15 15 15 15 15 15
18 18 17 17 17 17 17 17 17 17 17 17 17 17 17 17 17 17 16 16 16 16 16 16 16 16 16 16 16 16 16 16 16 15 16 15 15 15 15 15 15 14 14
18 17 17 17 17 17 17 17 17 17 17 17 16 16 16 16 16 16 16 16 16 16 16 16 16 16 16 16 16 16 16 15 15 15 15 15 15 15 15 15 14 14 14
17 17 17 17 17 17 17 17 17 17 16 16 16 16 16 16 16 16 16 16 16 15 15 15 15 15 15 16 15 15 15 15 15 15 15 15 15 15 14 14 14 14 14
17 17 17 17 17 17 17 16 16 16 16 16 16 16 16 15 16 16 16 15 15 15 15 15 15 15 15 15 15 15 15 15 15 15 15 15 14 14 14 14 14 14 14
17 17 17 16 17 16 16 16 16 16 16 16 16 16 15 15 16 16 15 15 15 15 15 15 15 15 15 15 15 15 15 15 15 15 15 14 14 14 14 14 14 14 13
17 16 16 16 16 16 16 16 16 16 16 16 15 15 15 15 15 15 15 15 14 14 15 14 14 15 15 15 15 15 15 15 14 14 14 14 14 14 14 14 13 13 13
17 17 16 16 16 16 16 16 15 15 15 15 15 15 15 15 15 15 15 14 14 14 14 14 14 14 14 14 14 14 14 14 14 14 14 14 14 14 13 13 13 13 13
16 16 16 16 15 15 15 15 15 15 15 15 15 15 14 14 15 15 14 14 14 14 14 14 14 14 14 14 14 14 14 14 14 14 14 14 14 14 13 13 13 13 13
16 16 16 16 15 15 15 15 15 15 14 14 14 14 14 14 14 14 14 14 14 14 14 14 14 14 14 14 14 13 13 13 13 13 13 13 13 13 13 13 13 13 13
15 15 15 15 15 15 15 15 14 14 14 14 14 14 14 14 14 14 14 14 14 14 14 14 14 14 14 14 13 13 13 13 13 13 13 13 13 13 13 13 12 12 12
15 15 15 15 14 14 14 14 14 14 14 14 13 13 13 13 14 14 14 14 14 13 13 13 13 13 14 13 13 13 13 13 13 13 13 13 13 12 13 12 12 12 12
15 14 14 14 14 14 14 14 14 13 13 13 13 13 13 13 13 13 13 13 13 13 13 13 13 13 13 13 13 13 12 12 12 12 12 12 12 12 12 12 12 12 11
14 14 14 14 14 13 13 13 13 13 13 13 13 13 13 13 13 13 13 13 13 13 13 13 13 13 12 12 12 12 12 12 12 12 12 12 12 12 12 11 11 11 11
14 14 13 13 13 13 13 13 13 13 13 13 13 13 13 13 13 13 13 13 13 12 12 13 12 12 12 12 12 12 12 12 12 12 12 11 11 11 11 11 11 11 11
14 13 13 13 13 13 13 12 13 13 13 13 13 13 12 12 12 12 12 12 12 12 12 12 12 12 12 12 12 12 12 11 11 11 11 11 11 11 11 11 11 11 11
13 13 13 13 13 13 13 12 12 12 13 12 13 12 12 12 12 12 12 12 12 12 12 12 12 11 11 11 11 11 11 11 11 11 11 11 11 11 10 10 10 10 10
13 13 12 12 12 12 13 12 12 13 12 12 12 12 12 12 12 12 12 12 11 11 11 11 11 11 11 11 11 11 11 11 10 10 10 10 10 10 10 10 10 10 10
12 12 12 12 12 12 12 12 12 12 12 12 12 12 12 12 12 11 11 11 11 11 11 11 11 10 10 10 10 10 10 10 10 10 10 9 9 9 9 9 9 9 9
12 12 12 12 12 12 12 12 12 12 12 12 12 12 11 11 11 11 11 10 10 10 10 10 10 10 10 10 10 10 10 9 9 9 9 9 9 9 9 9 9 9 9
12 12 12 12 12 12 12 12 12 11 12 12 11 11 11 11 11 11 11 10 10 10 10 10 10 10 10 9 9 9 9 9 9 9 9 9 9 9 8 8 8 8 8
12 12 12 12 11 11 11 11 11 11 11 11 11 11 11 11 10 10 10 10 10 9 9 9 9 9 9 9 9 9 9 9 9 8 8 8 8 8 8 8 8 8 8
11 11 11 11 11 11 11 11 11 11 11 11 11 11 11 10 10 10 10 10 9 9 9 9 9 9 9 9 9 8 8 8 8 8 8 8 8 8 8 8 7 7 8
11 11 11 11 11 11 11 11 11 11 11 11 11 11 10 10 10 10 10 9 9 9 9 9 9 9 9 9 8 8 8 8 8 8 8 8 8 8 7 7 7 7 7
11 11 11 11 11 11 11 11 11 11 11 11 10 10 10 10 10 10 9 9 9 9 9 9 9 9 8 8 8 8 8 8 8 8 8 7 7 7 7 7 7 7 7
11 11 11 11 11 10 10 10 10 10 10 10 10 10 10 10 9 9 9 9 9 9 9 9 9 9 8 8 8 8 8 8 8 8 8 7 7 7 7 7 7 7 7
Wind_Speed
7 6 6 5 5 5 5 5 5 5 5 5 5 4 4 5 5 5 6 6 6 6 6 6 5 5 5 4 4 4 4 5 5 4 3 2 2 3 2 3 4 4 5
6 6 6 5 5 5 5 5 6 5 5 5 5 5 5 5 5 5 6 6 6 6 6 6 6 5 5 5 4 5 4 5 5 5 4 3 4 4 3 3 3 4 4
6 6 5 5 5 6 6 5 5 5 5 5 5 5 5 5 5 6 6 6 7 6 6 7 7 6 6 5 5 5 5 5 5 5 5 3 3 3 3 4 4 3 4
6 6 6 6 5 5 5 5 4 5 5 5 5 5 5 5 5 6 6 6 7 7 7 7 7 6 6 6 5 6 5 5 5 5 5 4 3 3 3 4 3 3 3
5 6 6 6 5 5 5 4 4 5 5 5 5 5 5 5 4 5 6 7 6 6 6 7 7 5 5 5 5 5 5 5 5 5 5 4 4 3 4 4 4 3 4
6 6 5 5 4 4 5 5 4 5 5 5 5 5 5 4 3 4 6 6 6 6 6 7 7 6 5 6 5 5 6 7 6 6 5 5 5 5 4 5 4 4 4
4 5 4 4 4 5 5 5 5 5 5 5 5 5 5 4 3 4 5 6 6 6 6 6 6 4 4 5 5 7 7 7 7 7 6 6 6 5 6 6 5 5 5
4 4 3 3 4 3 4 4 4 4 4 5 5 5 5 3 2 3 5 5 5 5 6 6 5 5 4 4 5 5 6 6 6 6 6 7 6 5 5 6 6 6 5
3 4 4 4 4 4 4 4 3 3 4 4 4 4 4 3 2 3 5 4 4 4 4 4 5 5 2 3 5 5 5 4 4 4 5 5 5 6 6 4 5 4 4
4 4 3 4 4 4 4 3 3 3 3 3 2 2 3 3 1 2 4 4 3 4 3 3 2 2 2 3 5 5 5 5 4 3 4 5 6 6 7 6 6 5 4
3 3 3 3 3 3 3 2 2 3 2 2 2 2 2 2 1 1 3 3 3 3 3 2 1 1 1 3 5 4 4 5 4 3 3 3 3 3 4 5 4 5 5
1 1 2 2 2 2 2 2 2 2 2 2 2 2 1 1 1 1 2 3 4 3 2 2 0 1 2 3 3 2 5 5 3 3 2 3 3 3 3 3 3 4 4
1 1 1 1 1 1 2 2 3 3 2 2 2 1 1 1 0 1 3 3 4 3 2 1 1 3 5 4 3 5 5 3 2 2 2 3 3 3 3 2 2 2 3
1 0 0 1 1 1 1 2 2 2 2 2 2 2 1 1 1 1 1 1 2 2 2 2 4 5 4 2 3 2 2 1 2 2 2 2 2 2 2 2 2 2 2
0 0 1 1 1 1 1 1 1 1 2 3 3 2 3 2 1 3 2 2 2 2 3 2 1 1 1 1 1 1 1 1 1 2 2 1 1 1 2 2 2 2 2
0 1 1 1 1 1 1 0 3 1 2 1 2 3 2 1 0 0 1 2 2 3 2 2 1 1 1 1 1 1 1 1 1 2 2 1 2 2 2 2 2 2 2
1 1 1 1 1 1 1 1 0 1 1 1 0 1 2 1 0 1 1 2 3 4 3 2 1 1 1 1 1 1 1 1 1 1 1 1 1 2 2 2 2 2 2
1 1 1 1 1 1 1 1 1 1 1 1 1 1 2 1 1 1 2 1 1 2 2 1 1 1 1 1 1 1 1 0 0 1 1 1 1 1 2 2 2 3 3
1 1 0 1 1 1 1 1 1 1 1 1 1 1 2 2 2 0 1 0 1 1 1 1 1 1 0 1 1 1 1 1 1 1 1 1 1 2 2 2 3 3 4
1 1 0 1 1 1 1 2 1 1 1 1 1 1 1 1 1 1 1 1 1 2 1 1 1 1 1 1 1 1 1 1 1 1 1 2 2 2 2 3 3 3 4
0 0 1 1 1 1 1 2 2 1 1 1 1 1 2 1 1 1 1 1 1 2 1 1 1 1 1 1 1 1 2 1 1 1 1 2 2 2 2 3 3 3 3
1 1 1 1 1 1 1 1 1 1 1 1 1 1 1 1 1 1 1 1 1 1 1 1 1 1 1 1 1 1 1 1 1 2 2 2 2 3 3 3 3 3 3
1 1 1 1 1 1 2 2 2 2 2 1 1 1 1 2 2 1 2 2 1 1 1 1 1 1 0 0 1 1 1 1 2 2 3 3 3 3 3 3 4 4 3
1 1 1 1 2 2 2 2 2 2 2 2 2 2 2 2 2 2 2 2 2 2 1 1 1 1 1 1 1 1 0 1 3 3 3 3 4 3 3 3 4 4 4
2 2 2 2 2 2 2 2 3 3 3 3 2 2 2 2 2 2 2 2 2 2 1 1 1 1 1 1 1 2 4 3 3 4 3 4 4 4 4 4 4 4 4
2 2 2 2 2 2 2 3 3 3 3 3 3 2 2 2 2 2 2 2 2 2 2 2 2 1 1 1 1 3 2 2 3 5 5 4 4 4 4 4 5 5 5
Wind_Direction
207 212 221 221 226 231 236 243 248 252 252 254 255 256 258 261 261 253 254 252 251 252 251 245 244 252 257 255 250 247 242 241 250 264 257 239 235 253 245 237 228 221 198
207 210 217 225 228 232 235 241 245 248 248 245 249 253 257 257 257 255 258 255 253 253 252 252 250 244 245 253 254 250 243 238 241 254 259 247 236 232 236 245 241 231 231
208 213 219 227 230 236 241 242 242 245 247 246 244 249 258 263 261 259 258 257 255 256 255 251 250 245 244 246 248 247 244 240 243 250 260 259 252 237 226 233 235 237 239
211 216 220 227 231 236 239 240 242 245 245 244 246 251 255 258 260 261 258 255 254 253 252 250 247 242 239 240 238 238 241 242 238 242 251 256 252 241 225 231 235 232 235
218 223 225 227 228 233 236 239 241 245 244 247 249 253 257 254 260 263 259 255 254 254 251 251 248 240 237 235 243 238 238 241 243 245 250 252 247 245 236 236 241 242 230
222 227 228 228 228 231 234 237 241 244 248 247 249 253 256 263 286 286 269 263 258 253 252 251 249 230 217 217 225 234 239 238 243 247 249 254 252 245 242 243 236 234 244
227 230 233 234 231 233 238 238 243 245 245 245 246 250 253 260 263 262 267 263 260 257 255 252 254 250 225 233 223 223 231 235 237 241 243 251 258 252 245 243 237 242 246
230 226 230 231 235 239 243 244 248 252 250 248 246 246 247 246 241 252 264 252 261 264 254 246 243 248 248 250 241 239 242 241 240 241 248 255 259 267 253 243 240 238 245
243 240 238 233 230 234 242 247 248 252 254 253 245 243 248 249 241 258 263 251 251 258 257 250 240 235 239 259 242 243 248 249 230 221 235 247 256 256 254 246 243 239 250
256 249 246 232 229 233 242 245 244 247 250 255 244 239 243 256 237 268 270 255 255 254 248 239 210 237 247 244 242 244 249 257 261 253 230 230 238 232 222 231 242 243 252
267 248 239 227 225 229 236 235 243 241 245 249 248 233 225 238 196 218 274 262 272 276 278 272 253 134 226 250 258 250 253 257 246 247 250 250 249 247 241 237 242 244 251
276 234 230 231 229 216 218 226 231 235 235 239 236 244 238 221 216 199 229 266 287 275 282 293 283 148 213 229 239 246 249 248 243 250 253 257 259 258 258 256 249 249 258
286 245 221 231 228 208 210 217 219 224 236 240 240 252 276 298 214 184 217 241 259 265 288 336 284 228 221 207 194 223 235 240 243 251 266 275 276 271 266 261 238 224 245
283 218 170 159 198 204 218 224 224 226 229 237 247 254 262 265 323 337 313 299 250 260 288 214 206 217 227 220 196 212 235 236 245 251 271 287 297 296 276 285 276 257 267
319 152 145 161 172 179 208 275 252 280 262 254 258 262 261 266 351 360 321 317 312 297 280 250 208 188 224 218 227 232 234 225 238 254 261 273 284 286 294 297 287 281 276
219 215 212 190 179 200 186 82 36 17 85 60 323 292 292 310 17 285 303 294 278 263 247 214 205 230 252 248 246 236 225 232 256 258 259 269 274 275 283 290 289 291 292
240 247 243 221 215 232 213 206 291 39 82 64 38 276 261 268 241 238 237 239 246 230 222 215 218 235 252 263 265 275 278 263 266 268 266 279 290 285 284 289 291 287 285
254 226 227 234 249 268 257 239 253 278 341 0 15 153 168 171 191 204 208 211 225 213 233 228 234 249 260 264 268 288 293 298 267 272 273 269 280 280 286 292 289 292 289
315 310 337 306 258 270 270 252 244 251 265 294 20 102 151 157 153 158 186 252 312 329 310 272 272 267 288 294 287 278 283 277 274 269 265 263 266 273 281 285 282 276 276
322 14 276 253 259 279 281 271 263 252 254 258 283 343 116 131 51 93 125 322 320 325 331 338 343 327 311 300 282 258 240 236 239 254 279 282 284 278 281 286 284 279 275
354 33 281 268 279 293 286 274 262 258 251 248 256 47 5 307 338 347 337 329 316 315 322 325 340 328 309 292 283 256 245 245 250 275 287 290 294 292 285 282 285 289 293
332 311 304 316 322 315 290 268 261 265 260 255 270 151 144 267 300 307 300 300 298 296 305 287 268 277 292 279 264 264 259 262 298 303 294 289 286 286 288 288 292 301 297
277 286 294 303 306 297 281 280 272 268 264 260 268 273 249 270 276 288 298 304 303 295 291 287 293 291 260 232 240 231 240 265 288 290 287 290 288 285 285 287 285 287 287
260 262 275 282 291 292 289 281 275 277 269 260 257 260 263 270 274 277 278 282 283 279 278 277 295 343 6 313 247 240 288 316 290 279 283 283 283 283 281 278 278 280 278
261 242 237 243 250 263 269 268 265 265 265 268 267 267 269 266 267 270 271 271 273 264 255 252 259 265 280 305 333 5 33 19 331 308 277 273 273 277 277 276 278 280 279
269 265 252 246 251 257 260 261 259 261 268 270 268 265 265 270 271 273 278 277 265 247 248 241 241 248 244 244 8 28 36 2 319 308 291 274 273 275 278 273 274 273 272
Height
1518 1518 1519 1519 1520 1520 1520 1520 1521 1521 1521 1521 1522 1522 1522 1522 1522 1522 1522 1522 1522 1522 1522 1522 1522 1522 1522 1522 1522 1521 1521 1522 1522 1522 1522 1521 1520 1520 1520 1519 1519 1518 1518
1515 1516 1516 1517 1517 1517 1517 1517 1518 1518 1518 1518 1518 1519 1519 1519 1519 1518 1518 1519 1519 1518 1518 1518 1518 1519 1518 1519 1519 1519 1519 1519 1519 1518 1518 1518 1518 1517 1517 1516 1516 1516 1516
1512 1513 1513 1514 1514 1514 1514 1514 1514 1514 1515 1515 1515 1515 1515 1515 1515 1515 1515 1515 1515 1515 1515 1515 1515 1515 1515 1515 1515 1515 1516 1516 1516 1516 1515 1515 1515 1515 1514 1514 1514 1513 1513
1509 1510 1510 1510 1511 1511 1511 1511 1511 1511 1511 1511 1511 1511 1511 1511 1511 1511 1511 1511 1511 1511 1511 1511 1511 1511 1511 1511 1511 1512 1512 1512 1512 1512 1512 1512 1512 1511 1511 1511 1511 1510 1510
1506 1507 1507 1507 1507 1507 1507 1507 1507 1507 1508 1507 1507 1507 1507 1507 1507 1507 1507 1507 1507 1507 1507 1507 1507 1507 1507 1507 1508 1508 1508 1509 1509 1509 1509 1509 1509 1508 1508 1508 1507 1507 1507
1503 1503 1504 1504 1504 1504 1504 1504 1504 1503 1504 1504 1503 1503 1503 1503 1503 1503 1503 1503 1503 1503 1503 1503 1503 1503 1503 1504 1504 1505 1505 1505 1505 1506 1505 1505 1505 1505 1505 1505 1505 1504 1504
1500 1500 1500 1500 1500 1500 1501 1501 1500 1500 1500 1500 1500 1499 1499 1499 1499 1499 1499 1499 1499 1499 1499 1499 1500 1500 1500 1500 1500 1501 1501 1501 1502 1502 1502 1501 1501 1501 1501 1501 1501 1501 1500
1496 1496 1496 1497 1497 1497 1497 1497 1497 1497 1497 1496 1496 1496 1495 1495 1495 1495 1495 1495 1495 1495 1494 1494 1495 1495 1496 1496 1497 1497 1497 1498 1498 1498 1497 1497 1498 1498 1497 1498 1497 1497 1497
1493 1493 1493 1493 1493 1493 1494 1494 1494 1494 1493 1493 1493 1493 1492 1492 1492 1492 1492 1492 1492 1491 1490 1491 1491 1492 1492 1493 1493 1493 1494 1494 1494 1494 1494 1494 1494 1494 1494 1495 1495 1495 1494
1489 1489 1490 1490 1490 1490 1491 1491 1491 1491 1490 1490 1490 1490 1490 1490 1490 1490 1490 1490 1490 1489 1488 1488 1488 1489 1489 1489 1490 1490 1490 1490 1490 1491 1491 1491 1491 1491 1491 1491 1491 1491 1491
1487 1487 1487 1487 1488 1488 1488 1488 1488 1488 1488 1488 1487 1487 1487 1487 1487 1487 1487 1487 1487 1487 1487 1486 1486 1486 1486 1486 1486 1487 1487 1487 1487 1488 1488 1488 1488 1487 1487 1488 1487 1488 1488
1485 1485 1485 1485 1486 1486 1485 1485 1485 1485 1486 1486 1486 1485 1486 1485 1485 1485 1485 1485 1485 1485 1484 1484 1483 1483 1483 1483 1484 1484 1484 1484 1485 1485 1485 1485 1485 1484 1484 1484 1484 1483 1483
1483 1483 1483 1483 1483 1483 1483 1483 1483 1483 1484 1484 1484 1484 1484 1484 1483 1483 1483 1483 1482 1482 1482 1481 1481 1481 1481 1481 1481 1481 1482 1482 1482 1482 1482 1482 1482 1482 1482 1481 1480 1480 1480
1482 1482 1481 1481 1481 1481 1481 1482 1482 1482 1482 1482 1482 1482 1482 1482 1482 1481 1481 1481 1480 1480 1480 1479 1479 1479 1479 1479 1479 1479 1480 1480 1480 1480 1480 1480 1480 1480 1479 1479 1478 1477 1477
1481 1481 1480 1480 1480 1479 1480 1480 1480 1480 1480 1480 1480 1480 1480 1479 1479 1478 1478 1478 1478 1477 1477 1477 1478 1477 1477 1477 1477 1477 1477 1478 1478 1478 1478 1478 1477 1477 1477 1476 1475 1475 1474
1481 1480 1480 1480 1479 1479 1479 1478 1478 1478 1478 1478 1478 1478 1477 1477 1476 1476 1475 1476 1475 1475 1475 1475 1475 1476 1475 1475 1475 1475 1475 1475 1475 1476 1475 1475 1475 1475 1474 1474 1473 1473 1472
1480 1480 1480 1479 1479 1478 1478 1477 1477 1477 1475 1475 1475 1475 1475 1475 1474 1473 1473 1473 1473 1473 1473 1473 1474 1474 1474 1474 1473 1473 1473 1473 1473 1473 1473 1473 1472 1472 1472 1472 1471 1471 1470
1478 1478 1478 1478 1478 1478 1477 1477 1476 1475 1474 1474 1474 1474 1474 1473 1472 1471 1471 1471 1471 1470 1471 1471 1471 1471 1471 1471 1471 1471 1470 1470 1470 1471 1471 1471 1470 1470 1470 1470 1469 1469 1468
1477 1477 1477 1477 1477 1477 1476 1476 1475 1475 1475 1474 1474 1473 1472 1471 1470 1470 1469 1469 1469 1469 1469 1469 1469 1469 1469 1469 1469 1468 1468 1468 1468 1468 1469 1468 1468 1468 1468 1468 1468 1467 1466
1475 1475 1475 1476 1476 1475 1475 1475 1474 1474 1473 1473 1472 1472 1471 1470 1469 1468 1468 1468 1468 1467 1467 1467 1466 1466 1467 1467 1466 1466 1466 1467 1467 1467 1467 1467 1467 1466 1466 1466 1465 1465 1464
1474 1474 1474 1474 1475 1474 1474 1473 1473 1472 1472 1472 1471 1471 1470 1469 1469 1468 1467 1467 1466 1466 1466 1465 1464 1464 1465 1464 1464 1464 1465 1465 1465 1465 1465 1465 1465 1464 1464 1463 1463 1462 1462
1474 1473 1473 1473 1473 1473 1473 1472 1472 1471 1471 1471 1470 1470 1469 1468 1468 1467 1467 1466 1465 1465 1464 1464 1463 1463 1463 1463 1463 1463 1463 1463 1463 1463 1463 1463 1463 1462 1462 1461 1461 1460 1460
1473 1473 1472 1472 1472 1472 1472 1471 1471 1470 1470 1469 1469 1469 1468 1467 1467 1466 1465 1465 1464 1464 1463 1463 1462 1462 1461 1461 1461 1461 1461 1461 1461 1461 1461 1461 1460 1460 1460 1459 1459 1458 1457
1472 1471 1471 1471 1471 1471 1470 1470 1469 1469 1468 1468 1467 1467 1467 1466 1465 1465 1464 1464 1463 1463 1462 1461 1461 1460 1460 1460 1460 1460 1460 1460 1460 1459 1459 1459 1458 1458 1457 1457 1456 1456 1456
1470 1470 1469 1469 1469 1469 1469 1468 1468 1467 1467 1466 1466 1465 1465 1464 1464 1463 1463 1462 1462 1461 1461 1460 1460 1459 1459 1459 1459 1458 1458 1458 1458 1457 1457 1457 1456 1455 1455 1454 1454 1454 1454
1469 1468 1467 1467 1466 1466 1466 1466 1465 1465 1464 1464 1463 1463 1462 1462 1461 1461 1461 1460 1460 1460 1459 1459 1458 1458 1457 1457 1457 1456 1456 1456 1455 1455 1455 1454 1453 1453 1452 1452 1452 1451 1451